Location: Bli��� Lhota
(48.7570°N, 14.0120°E)
Time: 15:26:10
(UTC+00:00)

Cosmos 372 Rocket - Pass Details

Date: 18 September 2020
Orbit: 739 x 767 km, 74.1° (Epoch: 24 October)

Event Time Altitude Azimuth Distance (km) Brightness Sun altitude
Rises 18:43:48 0° 198° (SSW) 3,223 7.2 -15.9°
Reaches altitude 10° 18:46:10 10° 197° (SSW) 2,300 6.4 -16.3°
Maximum altitude 18:51:24 81° 111° (ESE) 780 3.9 -17.1°
Drops below altitude 10° 18:56:38 10° 25° (NNE) 2,305 6.5 -17.9°
Sets 18:59:01 0° 24° (NNE) 3,231 7.3 -18.3°
